CW5236 Weather Reports


Display with metric or nautical units.
time (UTC)temp
F
wind
direction
speed
MPH
gust
MPH
rain 1hr
in
rain 24hr
in
rain mn
in
humidity
%
barometer
mb
20260510220009 82 235 2.0 6.0 0.00 0.03 0.00 65 1015.9
20260510215505 82 217 2.0 6.0 0.00 0.03 0.00 65 1015.9
20260510215007 82 163 2.0 6.0 0.00 0.03 0.00 67 1015.8
20260510214515 82 140 2.0 6.0 0.00 0.03 0.00 66 1015.9
20260510214007 82 239 2.0 5.0 0.00 0.03 0.00 67 1015.9
20260510213510 82 161 2.0 6.0 0.00 0.03 0.00 67 1015.9
20260510213021 82 225 1.0 7.0 0.00 0.03 0.00 66 1015.9
20260510212505 82 222 2.0 7.0 0.00 0.03 0.00 63 1015.9
20260510212009 83 167 2.0 6.0 0.00 0.03 0.00 63 1015.8
20260510211531 82 207 2.0 8.0 0.00 0.03 0.00 64 1015.7
20260510211003 82 219 2.0 8.0 0.00 0.04 0.00 67 1015.8
20260510210505 83 206 3.0 8.0 0.00 0.04 0.00 65 1015.8
20260510210011 83 265 3.0 9.0 0.00 0.04 0.00 65 1015.9
20260510205503 83 230 2.0 9.0 0.00 0.05 0.00 65 1015.9
20260510205004 83 141 2.0 9.0 0.00 0.05 0.00 66 1015.8
20260510204515 82 185 4.0 7.0 0.00 0.05 0.00 66 1015.7
20260510204008 82 148 2.0 7.0 0.00 0.05 0.00 65 1015.8
20260510203508 82 171 2.0 7.0 0.00 0.05 0.00 65 1015.8
20260510203020 83 207 3.0 7.0 0.00 0.05 0.00 66 1015.8
20260510202503 83 149 1.0 5.0 0.00 0.05 0.00 65 1015.8
20260510202008 83 123 2.0 5.0 0.00 0.05 0.00 63 1015.7
20260510201523 83 155 2.0 7.0 0.00 0.05 0.00 64 1015.9
20260510201011 83 156 2.0 7.0 0.00 0.05 0.00 65 1015.8
20260510200506 83 84 1.0 6.0 0.00 0.05 0.00 65 1015.8
20260510200010 83 165 3.0 6.0 0.00 0.05 0.00 64 1015.9
20260510195503 83 5 1.0 9.0 0.00 0.05 0.00 66 1015.9
20260510195003 84 125 3.0 9.0 0.00 0.05 0.00 62 1015.9
20260510194512 84 170 2.0 6.0 0.00 0.05 0.00 65 1015.9
20260510194005 83 196 1.0 8.0 0.00 0.05 0.00 67 1015.8
20260510193505 82 201 4.0 8.0 0.00 0.05 0.00 65 1015.9
20260510193015 83 144 3.0 8.0 0.00 0.05 0.00 64 1015.9
20260510192508 83 244 2.0 8.0 0.00 0.05 0.00 66 1016.0
20260510192004 84 271 1.0 5.0 0.00 0.05 0.00 70 1016.0
20260510191522 83 171 2.0 8.0 0.00 0.05 0.00 66 1016.1
20260510191009 82 207 2.0 8.0 0.00 0.05 0.00 70 1016.2
20260510190506 82 205 2.0 8.0 0.00 0.05 0.00 70 1016.3
20260510190042 82 145 3.0 8.0 0.00 0.05 0.00 69 1016.3
20260510185509 82 159 3.0 8.0 0.00 0.05 0.00 69 1016.4
20260510185009 82 194 3.0 6.0 0.00 0.05 0.00 71 1016.4
20260510184512 81 227 2.0 7.0 0.00 0.05 0.00 70 1016.5
20260510184004 82 168 3.0 8.0 0.00 0.05 0.00 70 1016.5
20260510183506 82 163 2.0 8.0 0.00 0.05 0.00 72 1016.6
20260510183014 82 176 2.0 7.0 0.00 0.05 0.00 70 1016.6
20260510182504 83 231 3.0 6.0 0.00 0.05 0.00 68 1016.6
20260510182009 83 288 0.0 6.0 0.00 0.05 0.00 64 1016.7
20260510181519 84 276 2.0 6.0 0.00 0.05 0.00 64 1016.8
20260510181006 83 111 1.0 3.0 0.00 0.05 0.00 67 1016.8
20260510180509 83 253 0.0 4.0 0.00 0.05 0.00 66 1016.8
20260510180023 83 214 2.0 4.0 0.00 0.05 0.00 67 1016.7
20260510175510 83 180 1.0 2.0 0.00 0.05 0.00 65 1016.8
20260510175009 82 298 1.0 2.0 0.00 0.05 0.00 65 1016.9
20260510174524 82 263 1.0 3.0 0.00 0.05 0.00 69 1016.8
20260510174007 81 127 0.0 4.0 0.00 0.05 0.00 66 1016.7
20260510173502 81 352 1.0 4.0 0.00 0.05 0.00 65 1016.8
20260510173014 82 326 2.0 4.0 0.00 0.05 0.00 65 1017.0
20260510172508 81 157 1.0 5.0 0.00 0.05 0.00 69 1016.9
20260510172006 81 298 1.0 5.0 0.00 0.05 0.00 65 1016.9
20260510171517 81 70 2.0 4.0 0.00 0.05 0.00 67 1017.0
20260510171006 82 43 3.0 4.0 0.00 0.05 0.00 65 1017.1
20260510170508 82 120 1.0 4.0 0.00 0.05 0.00 69 1017.1
20260510170024 82 288 1.0 2.0 0.00 0.05 0.00 70 1017.2
20260510165507 81 67 1.0 5.0 0.00 0.05 0.00 68 1017.3
20260510165010 81 154 1.0 5.0 0.00 0.05 0.00 68 1017.3
20260510164526 81 107 2.0 4.0 0.00 0.05 0.00 68 1017.3
20260510164010 80 278 1.0 2.0 0.00 0.05 0.00 68 1017.3
20260510163511 80 158 1.0 4.0 0.00 0.05 0.00 69 1017.3
20260510163028 80 348 1.0 4.0 0.00 0.05 0.00 68 1017.3
20260510162507 80 67 1.0 3.0 0.00 0.06 0.00 71 1017.3
20260510162007 80 47 0.0 3.0 0.00 0.08 0.00 71 1017.2
20260510161523 80 76 1.0 2.0 0.00 0.11 0.00 70 1017.2
20260510161011 79 5 1.0 3.0 0.00 0.12 0.00 72 1017.2
20260510160505 79 74 1.0 4.0 0.00 0.12 0.00 70 1017.2
20260510160003 80 108 1.0 4.0 0.00 0.13 0.00 74 1017.2
20260510155502 79 175 2.0 3.0 0.00 0.15 0.00 74 1017.3
20260510155002 79 85 1.0 3.0 0.00 0.16 0.00 73 1017.3
20260510154508 79 49 1.0 4.0 0.00 0.19 0.00 73 1017.2
20260510154005 78 204 1.0 4.0 0.00 0.22 0.00 73 1017.3
20260510153503 78 178 1.0 4.0 0.00 0.24 0.00 73 1017.4
20260510153008 78 343 1.0 4.0 0.00 0.29 0.00 76 1017.5
20260510152508 78 352 1.0 4.0 0.00 0.38 0.00 73 1017.5
20260510152003 78 171 1.0 3.0 0.00 0.43 0.00 77 1017.3
20260510151520 78 24 1.0 3.0 0.00 0.45 0.00 74 1017.3
20260510151004 77 37 0.0 3.0 0.00 0.47 0.00 74 1017.4
20260510150504 78 91 1.0 3.0 0.00 0.49 0.00 77 1017.5
20260510150004 77 98 1.0 3.0 0.00 0.49 0.00 79 1017.4
20260510145502 77 88 1.0 3.0 0.00 0.49 0.00 78 1017.4
20260510145002 76 90 1.0 2.0 0.00 0.49 0.00 78 1017.5
20260510144503 77 49 1.0 3.0 0.00 0.49 0.00 77 1017.6
20260510144004 77 137 1.0 3.0 0.00 0.49 0.00 79 1017.6
20260510143504 76 5 1.0 3.0 0.00 0.49 0.00 80 1017.5
20260510143011 76 183 1.0 3.0 0.00 0.49 0.00 83 1017.5
20260510142507 75 153 1.0 2.0 0.00 0.49 0.00 82 1017.5
20260510142003 74 115 1.0 2.0 0.00 0.49 0.00 85 1017.5
20260510141511 73 144 0.0 2.0 0.00 0.49 0.00 86 1017.5
20260510141005 72 99 0.0 2.0 0.00 0.49 0.00 88 1017.4
20260510140503 72 88 1.0 2.0 0.00 0.49 0.00 85 1017.5
20260510140008 73 65 0.0 2.0 0.00 0.49 0.00 85 1017.4
20260510135504 73 68 1.0 3.0 0.00 0.49 0.00 87 1017.3
20260510135003 72 32 2.0 3.0 0.00 0.49 0.00 85 1017.4
20260510134504 72 77 1.0 3.0 0.00 0.49 0.00 86 1017.3
20260510134003 72 338 2.0 3.0 0.00 0.49 0.00 87 1017.3
20260510133502 71 49 1.0 3.0 0.00 0.49 0.00 88 1017.2
20260510133007 71 94 1.0 3.0 0.00 0.49 0.00 87 1017.2
20260510132508 71 107 1.0 3.0 0.00 0.49 0.00 88 1017.2
20260510132004 70 56 1.0 3.0 0.00 0.49 0.00 89 1017.2
20260510131510 69 13 0.0 3.0 0.00 0.49 0.00 92 1017.2
20260510131005 69 352 2.0 3.0 0.00 0.49 0.00 91 1017.1
20260510130505 69 360 1.0 2.0 0.00 0.49 0.00 91 1017.1
20260510130011 69 9 1.0 3.0 0.00 0.49 0.00 92 1017.0
20260510125504 69 9 1.0 3.0 0.00 0.49 0.00 93 1017.0
20260510125003 68 30 1.0 3.0 0.00 0.49 0.00 93 1017.0
20260510124510 68 30 1.0 3.0 0.00 0.49 0.00 94 1016.8
20260510124004 67 43 0.0 3.0 0.00 0.49 0.00 94 1016.8
20260510123503 67 342 1.0 3.0 0.00 0.49 0.00 95 1016.8
20260510123005 67 12 1.0 2.0 0.00 0.49 0.00 95 1016.6
20260510122502 67 342 1.0 2.0 0.00 0.49 0.00 95 1016.5
20260510122004 67 342 1.0 2.0 0.00 0.49 0.00 95 1016.4
20260510121510 67 28 0.0 2.0 0.00 0.49 0.00 95 1016.2
20260510121004 66 360 0.0 2.0 0.00 0.49 0.00 96 1016.1
20260510120508 66 350 0.0 2.0 0.00 0.49 0.00 96 1016.1
20260510120013 66 24 0.0 2.0 0.00 0.49 0.00 96 1016.0
20260510115507 66 5 0.0 2.0 0.00 0.49 0.00 96 1015.9
20260510115007 65 360 0.0 2.0 0.00 0.49 0.00 96 1015.8
20260510114518 65 74 0.0 2.0 0.00 0.49 0.00 95 1015.7
20260510114006 65 352 0.0 2.0 0.00 0.49 0.00 95 1015.7
20260510113504 65 350 0.0 2.0 0.00 0.49 0.00 95 1015.6
20260510113013 65 350 0.0 2.0 0.00 0.49 0.00 95 1015.7
20260510112504 65 352 0.0 2.0 0.00 0.49 0.00 95 1015.6
20260510112005 65 9 0.0 2.0 0.00 0.50 0.00 95 1015.6
20260510111508 65 344 0.0 2.0 0.00 0.50 0.00 95 1015.6
20260510111004 65 344 0.0 2.0 0.00 0.50 0.00 95 1015.5
20260510110504 65 360 0.0 2.0 0.00 0.50 0.00 95 1015.4
20260510110023 65 360 0.0 2.0 0.00 0.50 0.00 95 1015.3
20260510105506 64 360 0.0 0.0 0.00 0.50 0.00 95 1015.1
20260510105005 65 360 0.0 0.0 0.00 0.50 0.00 95 1015.1
20260510104516 65 360 0.0 0.0 0.00 0.50 0.00 95 1015.0
20260510104004 64 360 0.0 0.0 0.00 0.50 0.00 95 1014.9
20260510103504 65 360 0.0 0.0 0.00 0.50 0.00 95 1014.8
20260510103015 65 360 0.0 0.0 0.00 0.50 0.00 95 1014.8
20260510102505 65 360 0.0 2.0 0.00 0.50 0.00 95 1014.7
20260510102005 65 360 0.0 2.0 0.00 0.50 0.00 95 1014.6
20260510101510 65 360 0.0 2.0 0.00 0.50 0.00 95 1014.6
20260510101004 65 360 0.0 2.0 0.00 0.50 0.00 95 1014.6
20260510100505 65 360 0.0 0.0 0.00 0.50 0.00 95 1014.7
20260510100012 65 360 0.0 2.0 0.00 0.50 0.00 95 1014.7
20260510095504 66 360 0.0 2.0 0.00 0.50 0.00 95 1014.6
20260510095003 66 360 0.0 2.0 0.00 0.50 0.00 95 1014.6
20260510094519 66 360 0.0 2.0 0.00 0.50 0.00 95 1014.5
20260510094007 66 360 0.0 2.0 0.00 0.50 0.00 95 1014.4
20260510093512 66 360 0.0 2.0 0.00 0.50 0.00 95 1014.3
20260510093018 66 360 0.0 2.0 0.00 0.50 0.00 95 1014.2
20260510092506 66 360 0.0 2.0 0.00 0.50 0.00 95 1014.2
20260510092012 66 352 0.0 2.0 0.00 0.50 0.00 95 1014.1
20260510091517 66 360 0.0 2.0 0.00 0.50 0.00 95 1014.1
20260510091005 66 352 0.0 2.0 0.00 0.50 0.00 95 1014.1
20260510090503 66 348 0.0 2.0 0.00 0.50 0.00 95 1014.1
20260510090009 66 348 0.0 2.0 0.00 0.50 0.00 95 1014.0
20260510085507 66 348 0.0 2.0 0.00 0.50 0.00 95 1013.9
20260510085008 66 348 0.0 0.0 0.00 0.50 0.00 94 1013.9
20260510084514 67 348 0.0 2.0 0.00 0.50 0.00 95 1013.8
20260510084004 67 348 0.0 2.0 0.00 0.50 0.00 95 1013.7
20260510083508 67 348 0.0 2.0 0.00 0.50 0.00 95 1013.7
20260510083019 67 350 0.0 2.0 0.00 0.50 0.00 95 1013.6
20260510082503 67 345 0.0 2.0 0.00 0.50 0.00 95 1013.4
20260510082003 67 12 0.0 2.0 0.00 0.50 0.00 95 1013.4
20260510081519 67 11 0.0 2.0 0.00 0.50 0.00 95 1013.4
20260510081010 67 16 0.0 2.0 0.00 0.50 0.00 95 1013.3
20260510080506 67 67 0.0 2.0 0.00 0.50 0.00 95 1013.2
20260510080021 67 86 0.0 2.0 0.00 0.50 0.00 95 1013.2
20260510075508 67 86 1.0 2.0 0.00 0.50 0.00 95 1013.1
20260510075006 67 69 0.0 2.0 0.00 0.50 0.00 95 1013.0
20260510074511 67 148 0.0 2.0 0.00 0.50 0.00 95 1013.2
20260510074007 67 148 0.0 2.0 0.00 0.50 0.00 95 1013.1
20260510073505 67 148 0.0 2.0 0.00 0.50 0.00 95 1013.2
20260510073016 67 138 1.0 2.0 0.00 0.50 0.00 94 1013.2
20260510072507 67 160 0.0 4.0 0.00 0.50 0.00 94 1013.0
20260510072007 67 167 1.0 4.0 0.00 0.50 0.00 94 1013.0
20260510071526 67 149 1.0 2.0 0.00 0.50 0.00 94 1013.2
20260510071007 68 11 0.0 2.0 0.00 0.50 0.00 94 1013.3
20260510070503 68 5 0.0 2.0 0.00 0.50 0.00 95 1013.6
20260510070006 68 42 0.0 2.0 0.00 0.50 0.00 95 1013.5
20260510065504 68 113 0.0 2.0 0.00 0.50 0.00 95 1013.5
20260510065005 68 113 0.0 2.0 0.00 0.51 0.00 94 1013.4
20260510064510 68 113 0.0 2.0 0.00 0.51 0.00 94 1013.5
20260510064004 68 113 0.0 2.0 0.00 0.51 0.00 94 1013.4
20260510063504 68 113 0.0 2.0 0.00 0.51 0.00 94 1013.5
20260510063014 68 113 0.0 2.0 0.00 0.52 0.00 94 1013.4
20260510062504 68 113 0.0 2.0 0.00 0.52 0.00 94 1013.4
20260510062008 68 113 0.0 2.0 0.00 0.52 0.00 94 1013.5
20260510061520 68 128 0.0 2.0 0.00 0.52 0.00 94 1013.7
20260510061007 68 72 0.0 2.0 0.00 0.52 0.00 94 1013.8
20260510060509 68 72 0.0 2.0 0.00 0.52 0.00 94 1014.0
20260510060023 68 72 0.0 2.0 0.00 0.52 0.00 94 1014.1
20260510055505 68 72 0.0 2.0 0.00 0.52 0.00 94 1014.1
20260510055002 68 72 0.0 2.0 0.00 0.52 0.00 94 1014.1
20260510054508 68 55 0.0 2.0 0.00 0.52 0.00 94 1014.0
20260510054004 68 24 0.0 2.0 0.00 0.52 0.00 94 1014.1
20260510053503 68 10 0.0 2.0 0.00 0.52 0.00 95 1014.2
20260510053013 68 304 0.0 2.0 0.00 0.54 0.00 95 1014.2
20260510052504 68 108 0.0 2.0 0.00 0.54 0.00 95 1014.0
20260510052008 68 108 0.0 2.0 0.00 0.54 0.00 95 1013.8
20260510051518 68 132 0.0 2.0 0.00 0.54 0.00 95 1013.9
20260510051005 68 131 1.0 2.0 0.00 0.55 0.00 95 1013.7
20260510050508 68 105 0.0 2.0 0.00 0.55 0.00 95 1013.4
20260510050023 68 77 0.0 2.0 0.00 0.55 0.00 95 1013.8
20260510045510 68 73 0.0 2.0 0.00 0.55 0.55 95 1013.8
20260510045012 68 106 0.0 2.0 0.00 0.56 0.55 95 1014.0
20260510044509 68 106 0.0 2.0 0.00 0.56 0.55 95 1014.1
20260510044003 68 102 0.0 2.0 0.00 0.56 0.55 94 1014.1
20260510043505 68 92 0.0 2.0 0.00 0.56 0.55 95 1014.2
20260510043012 68 58 0.0 2.0 0.00 0.56 0.55 95 1014.4
20260510042506 68 340 0.0 2.0 0.00 0.56 0.55 95 1014.4
20260510042003 68 332 0.0 2.0 0.00 0.57 0.55 95 1014.4
20260510041515 68 329 0.0 2.0 0.00 0.57 0.55 95 1014.5
20260510041004 68 53 0.0 2.0 0.00 0.57 0.55 95 1014.4
20260510040508 68 53 0.0 2.0 0.00 0.57 0.55 95 1014.6
20260510040025 68 53 0.0 2.0 0.00 0.57 0.55 95 1014.7
20260510035510 68 53 0.0 2.0 0.00 0.57 0.55 95 1014.8
20260510035007 68 53 0.0 2.0 0.00 0.57 0.55 95 1014.7
20260510034524 68 26 0.0 1.0 0.00 0.57 0.55 94 1014.6
20260510034009 68 26 0.0 2.0 0.00 0.57 0.55 94 1014.5
20260510033506 68 26 0.0 2.0 0.00 0.57 0.55 94 1014.7
20260510033014 68 26 0.0 2.0 0.00 0.57 0.55 94 1014.5
20260510032503 68 26 0.0 2.0 0.00 0.57 0.55 94 1014.4
20260510032008 68 26 0.0 2.0 0.00 0.57 0.55 94 1014.4
20260510031512 68 26 0.0 2.0 0.00 0.57 0.55 94 1014.3
20260510031004 68 26 0.0 2.0 0.00 0.57 0.55 94 1014.2
20260510030504 68 24 0.0 2.0 0.00 0.57 0.55 94 1014.1
20260510030021 68 24 0.0 2.0 0.00 0.57 0.55 94 1014.2
20260510025505 68 24 0.0 2.0 0.00 0.57 0.55 94 1014.0
20260510025009 68 5 0.0 2.0 0.00 0.58 0.55 94 1013.8
20260510024523 68 352 0.0 2.0 0.00 0.58 0.55 94 1013.8
20260510024009 68 352 0.0 2.0 0.00 0.58 0.55 94 1013.9
20260510023510 68 9 0.0 2.0 0.00 0.58 0.55 94 1013.9
20260510023026 68 348 0.0 2.0 0.00 0.58 0.55 94 1013.9
20260510022511 68 38 0.0 2.0 0.00 0.58 0.55 94 1013.8
20260510022006 68 38 0.0 2.0 0.00 0.58 0.55 94 1013.8
20260510021512 68 349 1.0 2.0 0.00 0.58 0.55 94 1013.9
20260510021003 68 84 0.0 2.0 0.00 0.58 0.55 94 1013.8
20260510020503 68 84 0.0 2.0 0.00 0.58 0.55 94 1013.8
20260510020020 68 89 1.0 1.0 0.00 0.58 0.55 94 1013.9
20260510015507 68 313 0.0 2.0 0.00 0.58 0.55 94 1014.1
20260510015008 68 313 0.0 2.0 0.00 0.58 0.55 94 1014.1
20260510014520 68 313 0.0 2.0 0.00 0.58 0.55 94 1014.4
20260510014007 68 302 0.0 2.0 0.00 0.58 0.55 94 1014.3
20260510013508 68 303 0.0 2.0 0.00 0.58 0.55 94 1014.4
20260510013028 68 173 0.0 2.0 0.01 0.58 0.55 94 1014.3
20260510012511 68 173 0.0 1.0 0.01 0.58 0.55 94 1014.1
20260510012008 68 173 0.0 2.0 0.01 0.58 0.55 94 1014.2
20260510011526 68 173 0.0 2.0 0.01 0.58 0.55 94 1014.3
20260510011002 68 173 0.0 2.0 0.01 0.58 0.55 94 1014.3
20260510010503 68 173 0.0 2.0 0.01 0.58 0.55 94 1014.3
20260510010014 68 173 0.0 2.0 0.01 0.58 0.55 93 1014.2
20260510005507 68 165 0.0 2.0 0.01 0.58 0.55 93 1014.1
20260510005005 68 161 0.0 2.0 0.01 0.58 0.55 93 1013.8
20260510004519 68 151 0.0 2.0 0.01 0.58 0.55 93 1013.5
20260510004011 68 134 0.0 2.0 0.01 0.58 0.55 93 1013.3
20260510003505 68 158 0.0 4.0 0.01 0.60 0.55 93 1013.3
20260510003022 68 135 0.0 4.0 0.00 0.58 0.54 93 1013.3
20260510002503 68 127 1.0 4.0 0.00 0.58 0.54 93 1013.0
20260510002003 68 159 1.0 4.0 0.00 0.60 0.54 93 1012.9
20260510001519 68 132 1.0 2.0 0.00 0.60 0.54 93 1012.8
20260510001003 68 124 1.0 5.0 0.00 0.60 0.54 93 1012.9
20260510000507 69 123 1.0 5.0 0.01 0.60 0.54 93 1012.8
20260510000012 69 182 1.0 2.0 0.01 0.60 0.54 93 1012.9
20260509235504 69 159 0.0 2.0 0.01 0.60 0.54 93 1013.0
20260509235004 69 153 0.0 2.0 0.02 0.60 0.54 93 1013.2
20260509234516 69 151 0.0 2.0 0.02 0.60 0.54 93 1013.2
20260509234005 69 151 0.0 2.0 0.02 0.60 0.54 93 1013.2
20260509233509 69 151 0.0 2.0 0.02 0.60 0.54 93 1013.1
20260509233021 69 151 0.0 2.0 0.02 0.60 0.54 93 1013.0
20260509232511 69 151 0.0 2.0 0.02 0.60 0.54 93 1013.3
20260509232007 69 151 0.0 1.0 0.02 0.60 0.54 93 1013.3
20260509231508 69 151 0.0 2.0 0.02 0.60 0.54 93 1013.4
20260509231004 69 151 0.0 2.0 0.02 0.60 0.54 93 1013.5
20260509230503 69 151 0.0 2.0 0.01 0.58 0.52 93 1013.5
20260509230010 69 151 0.0 2.0 0.01 0.58 0.52 92 1013.5
20260509225505 69 151 0.0 2.0 0.01 0.60 0.52 92 1013.3
20260509225005 69 151 0.0 2.0 0.00 0.58 0.52 92 1013.2
20260509224515 69 151 0.0 2.0 0.00 0.58 0.52 92 1013.3
20260509224004 69 156 0.0 2.0 0.00 0.58 0.52 91 1013.0
20260509223504 70 146 0.0 3.0 0.00 0.58 0.52 91 1013.1
20260509223018 70 156 0.0 3.0 0.00 0.58 0.52 91 1013.0
20260509222510 70 164 0.0 2.0 0.00 0.58 0.52 91 1013.2
20260509222007 70 164 0.0 2.0 0.00 0.58 0.52 90 1013.2
20260509221526 70 163 0.0 2.0 0.00 0.58 0.52 91 1013.3
20260509221007 70 163 0.0 2.0 0.01 0.58 0.52 91 1013.0
20260509220504 70 213 0.0 2.0 0.01 0.58 0.52 91 1013.0